Regional Weather Roundup
Issued by NWS

Home | Current Version | Previous Version | Text Only | Print | Product List | Glossary On
Versions: 1 2 3 4 5 6 7 8 9 10 11 12 13 14 15 16 17 18 19 20 21 22 23 24 25 26 27 28 29 30 31 32 33 34 35 36 37 38 39 40 41 42 43 44 45 46 47 48 49 50
000
ASUS43 KDTX 231710
RWRMI
MICHIGAN HOURLY REGIONAL WEATHER ROUNDUP
NATIONAL WEATHER SERVICE DETROIT/PONTIAC MI
100 PM EDT FRI JUN 23 2017

NOTE: "FAIR" INDICATES FEW OR NO CLOUDS BELOW 12,000 FEET WITH NO
SIGNIFICANT WEATHER AND/OR OBSTRUCTION TO VISIBILITY.

MIZ047>049-052>055-059>063-066>070-074>076-081>083-231800-
SOUTHEAST LOWER MICHIGAN

CITY           SKY/WX    TMP DP  RH WIND       PRES   REMARKS
ADRIAN         MOSUNNY   79  70  74 W9        29.61S
ALMA           CLOUDY    73  67  82 W13G20    29.62R
ANN ARBOR      MOSUNNY   79  71  76 VRB6      29.59R
BAD AXE        CLOUDY    70  66  89 W8        29.57F
CARO           CLOUDY    70  68  94 W6        29.58R
DETROIT CITY   CLOUDY    76  69  79 CALM      29.58R
DETROIT        PTSUNNY   79  69  71 VRB5      29.59R
FLINT          PTSUNNY   75  67  76 W10       29.59R
GROSSE ILE     CLOUDY    76  70  80 W5        29.59R
HILLSDALE      PTSUNNY   77  64  65 W8        29.62S
HOWELL         CLOUDY    77  64  65 W13G18    29.60R

CITY           SKY/WX    TMP DP  RH WIND       PRES   REMARKS
JACKSON        CLOUDY    76  64  66 W12       29.62R
LAMBERTVILLE   CLOUDY    76  69  80 W6        29.61R
LANSING        CLOUDY    74  65  73 NW13      29.63R
LAPEER         PTSUNNY   75  68  78 W8        29.58R
MASON          CLOUDY    74  67  80 NW10      29.62R
MONROE         CLOUDY    78  73  84 SW12      29.59R
MT. CLEMENS    PTSUNNY   73  72  98 SE7       29.56R
PONTIAC        PTSUNNY   76  68  76 S7        29.57S
PORT HOPE        N/A     69  66  90 NW8       29.55F
PORT HURON     CLOUDY    73  66  78 SE3       29.57R
TRI CITIES     CLOUDY    72  69  90 NW10      29.60R
MIDLAND        CLOUDY    71  65  81 NW7       29.59R
TROY           CLOUDY    75  65  72 CALM      29.59R
SAGINAW HB     PTSUNNY   72  64  78 W12       29.58S
$$
MIZ043>046-050>051-056>058-064>065-071>073-077>080-231800-
SOUTHWEST LOWER MICHIGAN

CITY           SKY/WX    TMP DP  RH WIND       PRES   REMARKS
BATTLE CREEK   CLOUDY    71  66  84 NW10      29.65R
BENTON HARBOR  CLOUDY    68  61  78 NW9       29.68R
BIG RAPIDS     MOSUNNY   71  59  64 W8G17     29.63F
COLDWATER      CLOUDY    74  67  80 W10       29.63S
FREMONT        PTSUNNY   71  62  73 NW12      29.65S
HOLLAND        CLOUDY    68  62  81 NW13G20   29.68S
GRAND RAPIDS   CLOUDY    72  64  76 NW13      29.64R
IONIA          CLOUDY    73  63  72 NW13      29.63R
KALAMAZOO      CLOUDY    72  64  76 NW13      29.65R
LUDINGTON      CLOUDY    71  62  75 NW7       29.65F
MARSHALL       CLOUDY    74  65  75 NW12G17   29.63R
MOUNT PLEASANT CLOUDY    73  64  73 W9        29.60S
MUSKEGON       CLOUDY    72  63  73 NW10      29.66S
SOUTH HAVEN    CLOUDY    69  63  81 NW13      29.68S
$$
MIZ016>042-231800-
NORTHERN LOWER MICHIGAN

CITY           SKY/WX    TMP DP  RH WIND       PRES   REMARKS
ALPENA         CLOUDY    73  65  75 NW10      29.58S
BEAVER ISLAND  MOSUNNY   70  60  69 W10       29.61F
BELLAIRE       MOSUNNY   70  60  70 CALM      29.62F
CADILLAC       MOSUNNY   72  59  63 W12G18    29.64S
CHARLEVOIX     MOSUNNY   68  65  90 W8        29.64F
FRANKFORT      MOSUNNY   70  58  65 W9        29.64S
GAYLORD        MOSUNNY   72  56  57 NW7G18    29.61S
GRAYLING       MOSUNNY   74  60  61 NW13G18   29.62F
HARBOR SPRINGS FOG       62  62 100 SW6       29.61F VSB 1/2
HOUGHTON LAKE  CLOUDY    73  60  63 W9        29.62S
MANISTEE       MOSUNNY   70  60  70 NW12      29.65S
OSCODA         CLOUDY    71  68  91 W6        29.56F
PELLSTON       SUNNY     75  57  53 NW13      29.59F
ROGERS CITY    MOSUNNY   72  60  65 N6        29.58F
TRAVERSE CITY  PTSUNNY   74  58  57 N8        29.61S
$$
MIZ007>008-015-231800-
EASTERN UPPER MICHIGAN

CITY           SKY/WX    TMP DP  RH WIND       PRES   REMARKS
KINROSS        MOSUNNY   72  56  57 NW8       29.57F
MACKINAC ISLAN FOG       62  62 100 SW5       29.59S VSB 1/2
NEWBERRY       MOSUNNY   73  49  42 W6        29.58F
S. S. MARIE    MOSUNNY   71  51  49 NW9       29.57F
MUNISING         N/A     75  43  31 NW13G24   29.56F
$$
MIZ004>006-011>014-085-231800-
CENTRAL UPPER MICHIGAN

CITY           SKY/WX    TMP DP  RH WIND       PRES   REMARKS
MANISTIQUE     MOSUNNY   69  61  77 MISG      29.58F
ESCANABA       PTSUNNY   73  60  63 SW7       29.59F
MENOMINEE      MOSUNNY   76  50  40 W9G16     29.62F
SAWYER-GWINN   PTSUNNY   72  43  35 W14G26    29.60S
$$
MIZ001>003-009>011-084-231800-
WESTERN UPPER MICHIGAN

CITY           SKY/WX    TMP DP  RH WIND       PRES   REMARKS
IRON MOUNTAIN  MOSUNNY   75  44  33 W14G26    29.61S
HOUGHTON       SUNNY     64  48  56 W22G32    29.61S
COPPER HARBOR    N/A     65  47  52 N23G31    29.57S
IRONWOOD       PTSUNNY   64  50  60 NW17G25   29.69R
$$

ABBREVIATIONS USED IN REMARKS
   TC - TEMPERATURE IN CELSIUS
  WCI - WIND CHILL INDEX
   HX - HEAT INDEX
  VSB - VISIBILITY





USA.gov is the U.S. government's official web portal to all federal, state and local government web resources and services.